Theta_e
326 323 317 311 312 313 309 301 293 292 294 287 286 287 289 291 291 289 288 289 290 289 289 288 287 290 290 287 287 287 287 289 288 283 282 288 297 298 303 305 300 302 306 303 303 306 316 326 326 326 325 326 325 326 326 324 323 323 323 323 322 322 322 323 324 324 324 324 324 324 324 325 325 325 324 324 324 325 325 326 328 328 328 329 329 329 329 330 334 334 332 330 329 329 329 330 329
324 320 311 313 313 308 303 297 290 289 289 284 288 286 288 289 290 288 288 288 287 292 287 288 287 287 288 288 286 287 287 291 291 293 294 294 296 302 303 306 300 303 303 302 303 305 309 318 325 324 324 326 325 326 325 324 323 322 323 322 321 322 322 323 323 323 323 323 323 323 323 324 324 324 323 323 323 324 324 325 326 328 328 328 328 328 329 331 333 332 330 327 328 329 328 329 329
324 317 310 312 310 305 301 297 293 285 288 284 284 287 288 288 288 288 289 287 287 287 287 288 289 289 290 288 289 289 285 288 288 291 294 294 301 303 304 303 301 302 302 301 303 305 307 316 324 324 324 325 325 326 325 323 323 323 320 320 321 320 322 323 323 322 322 322 322 322 323 323 323 323 323 323 323 323 323 324 325 326 327 327 327 327 329 333 333 332 330 327 327 328 328 329 328
317 312 311 306 306 299 296 291 288 286 288 283 283 287 287 289 287 290 287 287 288 287 289 292 291 290 290 287 289 288 286 288 290 293 293 297 298 298 306 301 304 300 301 303 303 305 306 321 323 323 324 325 325 325 324 323 322 322 320 320 319 321 321 322 321 321 321 321 322 322 322 322 322 322 322 322 322 322 323 324 325 325 326 327 328 328 330 333 333 331 330 328 326 327 328 328 328
315 315 309 304 302 300 294 291 288 287 286 284 285 287 287 287 290 288 290 288 286 288 288 290 290 290 290 290 287 289 288 288 292 292 295 294 296 297 304 301 300 300 301 301 304 304 305 322 322 323 324 325 325 325 324 322 322 322 321 318 319 320 320 321 321 320 320 321 321 321 321 321 321 321 321 322 322 323 322 324 325 325 326 326 327 328 330 332 332 331 331 329 326 327 328 327 328
313 311 312 310 305 302 294 290 289 287 290 286 288 289 288 289 290 289 288 289 291 288 289 288 289 291 289 288 289 289 288 295 294 291 293 295 296 298 303 305 299 300 300 300 301 301 302 323 322 323 324 325 324 324 323 322 322 323 320 319 318 319 320 320 320 319 319 320 320 320 320 320 320 321 321 322 322 322 321 323 325 325 325 326 327 328 331 331 331 331 330 328 326 326 328 329 328
311 305 303 303 301 298 290 287 286 287 292 290 290 291 294 291 290 289 289 291 291 292 289 292 288 290 288 288 290 292 291 295 294 297 295 297 296 300 302 300 299 299 298 299 300 300 300 321 323 322 323 324 324 324 323 322 322 322 320 319 317 318 318 318 319 319 319 319 320 320 320 320 320 320 320 321 321 321 320 322 323 324 325 325 326 327 330 330 331 330 330 329 325 327 328 328 328
311 307 303 297 292 294 291 288 289 288 290 293 291 291 292 292 288 289 289 290 290 291 289 288 288 290 288 287 288 288 291 290 295 293 293 295 298 299 301 299 299 297 298 297 298 299 308 319 323 322 322 323 324 324 323 323 322 321 320 318 318 317 317 318 318 318 318 318 318 319 319 319 320 320 321 320 319 319 319 321 322 323 323 324 326 328 329 329 330 330 329 329 326 326 328 327 327
307 304 301 296 293 289 286 289 289 291 291 291 293 292 300 298 289 290 289 289 289 289 289 290 288 288 284 285 287 288 288 290 293 297 295 296 298 299 301 299 299 298 297 297 297 297 301 317 323 322 321 321 323 323 323 322 322 322 320 319 318 316 317 317 317 317 317 317 318 318 318 319 319 320 320 318 318 317 318 320 321 322 323 324 325 328 329 329 329 330 329 329 329 326 327 327 328
303 303 296 293 290 290 284 286 287 288 289 290 290 294 293 291 290 291 290 291 290 289 290 288 286 288 285 287 287 288 292 292 292 295 294 297 298 299 299 299 299 298 297 297 296 297 299 313 323 322 321 320 321 322 322 322 323 322 321 320 318 318 316 316 316 316 317 317 317 317 318 318 319 319 318 316 317 316 317 318 319 321 323 324 326 328 328 328 329 329 329 329 328 326 327 327 327
298 297 296 295 288 286 287 285 285 289 287 287 289 290 290 289 290 289 288 290 288 289 288 286 290 288 289 287 288 289 289 292 294 295 294 297 298 299 298 298 297 298 298 297 297 297 301 305 322 323 321 320 320 320 321 321 322 322 321 320 319 317 316 315 315 316 315 316 316 317 317 317 317 317 317 315 315 315 316 317 318 320 322 325 325 326 327 328 328 329 329 329 329 328 328 328 328
296 296 296 288 286 287 285 285 285 288 289 288 290 291 289 289 289 290 288 290 287 287 288 288 291 287 287 284 284 287 289 292 293 294 294 296 297 298 298 297 297 297 298 298 299 298 300 302 310 321 322 322 320 319 319 319 320 320 320 320 319 317 315 315 315 315 315 315 315 316 316 316 317 316 315 315 315 314 316 316 316 319 321 324 324 326 326 326 328 328 329 330 330 330 330 329 329
297 291 289 288 284 286 284 287 287 289 287 287 291 291 289 289 290 289 287 288 286 289 289 290 288 289 287 285 284 286 291 293 294 293 294 296 297 296 297 296 298 297 298 299 299 299 300 301 307 310 316 323 323 323 322 319 319 319 320 320 319 317 315 314 314 314 313 314 314 314 315 315 316 315 315 315 315 315 315 315 315 318 320 322 323 325 326 326 327 328 329 329 330 330 329 329 328
296 293 292 290 284 283 285 285 284 288 286 289 287 288 289 291 289 288 286 289 286 288 290 289 289 288 287 286 290 282 286 289 292 293 293 295 295 295 296 295 297 297 297 297 299 299 300 302 306 307 310 313 309 318 323 320 319 319 319 320 319 317 315 314 313 313 313 313 314 313 314 315 315 315 315 315 314 315 315 314 315 318 319 321 322 323 324 325 326 327 328 329 329 329 328 327 326
299 292 289 286 285 284 283 289 288 284 286 287 291 288 290 293 289 285 290 289 291 289 290 288 290 290 285 288 286 286 291 290 294 293 294 295 295 295 296 296 297 296 296 296 298 298 300 301 304 306 306 306 307 306 306 313 321 320 320 320 319 317 315 313 313 314 313 314 314 315 316 316 314 314 315 315 315 315 314 314 315 317 319 320 321 322 323 325 325 326 327 328 329 328 327 326 326
298 292 289 290 285 286 287 286 286 285 289 287 288 286 288 289 287 291 290 291 290 289 289 291 291 290 287 287 288 291 290 289 293 294 295 294 295 295 296 296 296 296 296 297 297 298 299 300 302 304 304 304 304 305 305 304 317 322 322 321 319 318 316 314 315 314 315 315 317 316 316 312 310 306 313 307 315 313 313 313 314 315 318 318 319 320 322 323 324 325 326 328 328 328 327 326 325
295 295 291 283 287 285 286 287 286 287 286 285 285 287 290 288 288 288 289 289 291 289 288 288 292 291 287 287 287 288 286 297 298 294 295 294 293 294 295 295 295 295 297 297 297 298 298 299 300 301 302 302 303 303 303 302 305 319 321 322 321 319 318 316 318 318 318 316 314 314 312 301 300 298 299 300 312 306 312 312 314 314 315 316 318 319 320 321 322 323 325 327 327 327 325 324 325
298 294 287 287 285 286 287 289 287 289 288 289 289 286 288 287 287 291 289 289 288 288 288 289 288 288 290 287 290 290 292 293 293 294 293 293 293 292 292 293 293 296 296 297 298 297 298 298 299 300 301 301 301 304 303 302 303 313 308 308 310 313 318 318 312 307 315 304 311 303 299 303 299 297 299 307 303 305 305 312 313 312 313 314 316 316 317 318 320 321 324 325 326 325 324 319 320
295 286 287 290 285 289 290 287 289 287 288 286 287 285 287 288 288 289 289 286 285 287 287 287 290 292 294 292 289 291 292 292 292 294 293 294 293 293 294 294 294 293 295 296 298 298 298 299 298 300 300 301 301 300 303 302 301 302 305 303 305 315 311 309 305 307 303 301 301 299 303 299 299 300 299 306 307 309 305 310 310 310 310 311 313 312 313 314 317 317 320 322 323 323 319 319 318
290 291 287 286 288 288 288 287 288 287 289 288 287 286 285 287 288 289 289 289 285 286 289 287 287 291 292 293 291 291 291 292 293 293 294 294 294 294 293 293 294 295 296 297 298 298 298 299 299 299 300 300 301 302 302 301 300 299 303 303 304 301 300 302 301 300 300 299 298 298 299 299 299 295 306 306 306 298 298 304 307 306 305 305 310 304 307 308 312 312 315 318 317 317 318 320 320
292 291 287 288 286 291 292 288 288 285 287 288 286 285 285 285 285 288 286 288 291 291 290 291 292 291 292 291 290 290 290 291 292 293 293 294 294 294 295 295 296 296 296 295 298 299 299 299 299 298 299 299 300 301 302 301 300 299 299 301 300 299 297 297 297 298 298 298 297 298 296 299 295 295 295 295 296 296 295 296 297 296 297 297 306 297 298 299 302 302 305 309 310 314 317 319 320
291 291 287 288 286 290 290 287 286 285 285 286 284 287 289 287 286 286 286 287 292 292 288 291 292 293 292 291 288 290 290 291 292 292 293 293 294 294 294 294 294 293 295 295 297 298 299 299 299 299 299 298 300 301 302 302 304 299 300 300 299 297 297 297 296 296 296 297 297 297 299 295 295 294 294 294 295 296 296 296 296 296 295 297 300 297 298 298 299 301 303 305 308 312 316 318 320
290 287 286 285 285 291 291 285 285 285 286 286 286 286 287 286 287 284 286 290 295 294 291 288 290 292 290 288 288 289 290 291 291 293 293 293 293 294 295 295 295 295 295 297 297 297 298 298 298 298 298 299 299 300 301 302 301 301 300 299 298 299 296 296 296 295 297 296 295 297 298 295 294 293 294 294 295 295 295 295 295 295 295 296 299 297 298 298 298 300 302 303 306 311 315 318 319
290 289 284 288 284 289 287 288 284 283 287 286 284 286 287 285 288 285 285 292 294 294 291 291 289 287 287 287 287 290 291 292 292 293 294 295 295 295 296 295 296 295 294 296 296 297 299 298 298 298 299 298 299 298 299 300 299 299 299 302 303 300 298 296 296 296 296 296 296 297 301 294 295 295 294 294 295 294 295 294 294 294 295 296 298 298 297 297 298 298 301 302 304 309 315 317 317
288 287 284 286 284 285 283 282 284 282 284 284 284 287 288 286 287 284 289 293 291 293 292 292 291 287 285 286 288 287 289 290 292 293 294 294 294 296 295 295 294 294 295 296 296 296 297 299 298 298 298 300 299 298 299 299 298 299 297 298 299 303 297 297 295 296 296 296 297 297 298 294 294 294 294 295 293 294 294 294 294 294 295 296 297 297 297 297 297 298 300 300 303 306 311 316 317
286 288 286 284 285 284 282 285 284 284 284 283 287 287 287 285 284 286 292 295 292 289 288 286 285 285 287 288 289 288 288 290 291 292 293 294 294 293 295 295 295 294 296 297 296 297 297 297 298 299 299 300 300 298 299 298 298 298 297 298 298 302 298 296 295 296 295 295 296 297 299 295 294 294 294 293 294 295 294 294 294 294 294 295 296 296 297 297 297 297 299 300 302 305 310 314 317
286 284 284 287 286 284 285 286 284 283 284 284 287 287 286 285 287 291 291 288 284 286 285 282 285 286 287 288 288 288 288 289 290 293 292 292 293 294 295 295 295 296 296 296 296 297 298 296 298 299 299 302 299 299 298 299 299 298 299 297 297 300 298 296 297 295 294 295 297 296 297 298 295 294 294 293 293 294 293 293 293 294 294 295 295 296 296 297 297 297 298 298 301 305 310 313 316
285 286 284 284 283 282 283 281 284 284 287 283 285 286 285 284 284 289 294 285 287 287 289 288 286 287 287 287 287 288 288 289 289 290 292 292 293 294 294 295 295 296 295 296 297 296 296 297 298 298 299 300 301 299 301 299 298 298 298 297 296 298 297 295 295 295 298 296 296 295 296 297 297 293 294 293 294 294 293 293 292 294 294 294 295 294 296 297 297 297 298 300 302 307 310 312 314
286 285 285 281 282 285 282 284 284 284 285 284 284 284 285 284 285 293 292 286 286 284 287 288 286 286 285 286 286 287 288 289 288 289 292 294 294 295 295 296 297 296 297 298 297 296 296 297 297 298 299 299 300 299 299 300 299 298 298 297 297 298 297 296 296 296 297 295 295 295 295 296 298 296 294 295 297 292 294 293 293 294 293 293 294 294 295 295 296 297 299 302 305 308 310 310 312
285 283 283 284 281 282 281 283 282 284 286 282 284 282 286 285 290 292 290 286 285 285 286 286 286 285 285 285 286 287 288 287 288 290 292 293 294 295 295 296 297 297 297 297 295 296 298 298 299 299 298 299 300 300 299 298 298 297 298 296 298 297 295 295 297 296 296 295 296 295 295 296 296 294 295 293 293 293 292 292 293 293 293 294 294 294 294 294 295 297 298 303 305 306 308 308 306
285 283 281 281 279 278 282 281 283 284 285 283 284 281 286 285 283 284 283 282 285 285 286 286 287 287 287 287 286 288 289 288 290 291 292 292 293 294 295 296 296 297 297 296 296 297 297 298 299 299 301 298 301 299 300 299 297 297 297 296 297 297 296 296 295 295 294 295 296 295 295 297 294 295 293 295 293 293 292 293 294 293 293 294 293 293 293 295 295 295 297 304 304 305 305 305 303
281 281 278 275 280 278 280 283 283 285 285 284 285 281 285 286 288 288 283 283 283 284 286 287 288 289 290 290 290 289 290 290 289 290 291 291 292 293 294 295 296 296 297 297 297 297 296 296 299 298 299 298 300 300 299 299 298 297 297 299 297 295 296 296 294 295 295 294 296 296 294 296 294 294 294 294 294 292 292 293 294 293 294 292 294 293 294 294 294 295 295 299 303 301 302 301 301
276 280 279 279 279 277 281 285 281 283 284 286 284 283 283 283 281 279 286 283 284 284 288 290 291 292 292 292 291 291 291 291 290 290 290 290 291 293 294 295 295 296 297 297 297 296 296 296 300 298 298 298 299 299 298 296 296 296 296 298 296 296 295 295 294 294 295 296 295 295 295 297 294 294 293 293 295 293 292 294 293 293 294 292 292 292 293 293 293 295 295 298 302 300 299 298 298
277 277 277 277 279 277 279 280 284 283 284 283 284 281 285 287 288 291 286 284 286 288 289 290 291 292 293 292 292 292 291 291 293 294 292 290 291 291 293 296 295 295 296 297 297 297 297 297 298 299 299 299 299 299 298 297 296 296 295 296 297 295 295 295 294 294 295 295 295 295 295 297 295 293 292 293 293 293 292 293 292 292 292 292 292 293 292 291 292 295 296 297 300 300 297 296 295
279 280 279 279 277 277 279 280 283 284 284 283 281 282 285 287 289 289 291 289 287 289 290 290 291 292 293 293 293 293 293 292 294 295 293 292 291 290 291 292 294 294 296 297 296 297 296 296 298 299 299 298 298 298 297 295 295 293 292 293 294 293 292 292 293 294 294 295 295 295 295 298 297 292 293 293 294 294 292 292 293 292 292 292 293 292 292 292 293 293 299 299 299 299 297 295 295
284 278 278 278 280 280 279 281 279 284 282 282 281 283 287 289 288 290 291 289 288 291 291 290 291 292 292 293 293 293 293 293 295 294 292 291 291 291 290 291 293 294 295 296 296 296 296 296 297 298 298 298 297 296 296 295 295 296 295 293 293 294 292 294 292 294 294 295 295 295 296 295 295 295 292 292 294 294 294 292 293 291 291 291 292 293 291 292 294 297 298 299 298 297 296 295 294
280 279 281 280 279 281 281 280 280 282 284 283 284 284 284 287 289 290 292 292 290 291 291 291 292 292 292 292 292 292 292 293 295 292 291 292 292 290 290 290 293 294 294 295 296 295 296 297 298 298 298 297 298 296 296 296 295 293 293 294 295 294 294 293 295 292 294 294 294 294 295 295 294 295 294 293 294 297 294 292 292 291 291 292 292 292 290 290 291 296 298 299 297 296 294 293 293
285 282 281 281 280 279 283 283 284 282 285 281 282 284 287 289 292 293 293 291 291 292 291 291 292 291 291 291 291 292 293 292 292 292 291 289 289 289 289 290 294 294 294 295 295 296 297 297 298 298 297 297 298 298 298 297 296 297 295 295 291 291 294 294 294 293 294 294 294 294 295 294 294 295 295 292 294 294 293 292 293 292 292 292 291 290 290 295 292 294 297 296 294 296 294 294 294
281 282 279 280 281 280 281 282 282 283 285 284 281 285 288 290 292 293 293 292 292 292 292 293 291 291 292 291 291 291 291 292 292 292 289 288 288 289 288 290 293 295 295 295 296 296 296 296 298 298 298 298 298 298 298 298 296 296 296 292 295 291 291 292 292 293 295 295 294 294 294 293 294 293 293 294 294 292 294 293 294 292 292 295 292 291 290 291 291 295 296 297 294 290 293 291 291
282 280 282 280 278 281 279 279 281 286 285 283 283 282 286 290 291 289 290 289 289 287 288 289 290 291 292 292 291 291 291 292 292 292 291 288 287 288 288 290 292 294 294 294 294 295 296 297 297 298 298 298 298 298 300 297 297 294 293 294 293 293 294 292 290 292 292 292 294 292 291 293 293 294 292 293 293 293 293 294 293 292 292 293 292 292 290 291 290 291 292 296 297 295 292 294 291
277 281 279 279 280 278 280 279 281 282 281 282 283 283 284 283 284 285 284 284 284 285 284 285 287 289 290 291 290 291 291 291 291 292 292 288 287 288 289 290 291 293 294 295 295 296 297 297 298 298 298 298 298 299 299 297 297 294 294 294 294 294 294 292 292 292 291 292 292 291 294 291 292 293 292 293 294 293 291 292 293 293 293 292 292 292 292 293 292 292 293 296 296 296 293 289 290
277 277 282 281 279 281 280 280 282 280 277 282 282 280 278 283 283 283 287 287 289 284 286 288 290 287 285 287 288 288 289 290 291 292 292 291 288 287 288 289 291 292 294 295 296 297 297 297 297 297 297 297 298 298 298 298 298 296 295 295 294 292 292 292 294 295 294 294 295 291 291 291 292 292 291 292 293 293 292 292 292 293 292 292 292 292 292 289 290 290 292 297 295 293 296 290 292
279 279 280 280 280 281 282 281 281 277 278 280 282 278 277 281 288 289 290 285 286 289 284 287 287 286 286 287 288 289 288 289 288 289 290 289 288 287 288 290 291 292 294 294 294 296 296 297 297 297 298 297 297 298 297 299 296 296 297 297 297 296 295 295 293 293 296 294 292 293 293 290 290 293 291 291 292 292 292 291 292 293 293 292 293 291 290 292 292 292 291 291 295 293 292 294 294
279 280 278 281 282 283 281 280 279 279 277 278 279 279 276 281 286 288 283 282 286 287 287 284 285 286 286 287 288 287 288 287 288 289 290 289 287 288 289 290 291 292 292 293 294 295 296 297 297 297 298 298 297 298 297 299 297 296 296 296 296 295 296 296 295 294 292 293 292 292 292 291 290 290 292 291 291 292 292 291 291 291 292 291 292 291 292 290 289 289 291 289 289 292 294 296 293
279 281 281 281 282 281 279 280 278 279 277 280 277 278 279 277 283 285 284 285 286 284 284 284 287 285 286 287 289 287 287 287 287 289 290 290 289 288 289 289 291 291 292 294 294 295 296 295 297 296 297 297 297 297 298 297 298 297 297 296 295 296 295 292 293 292 293 293 292 289 290 291 291 290 290 291 291 291 293 292 290 290 291 291 294 291 289 289 290 291 290 289 290 290 292 292 292
282 280 281 280 279 279 280 278 282 277 276 278 278 277 274 277 282 283 281 283 283 284 285 285 286 287 287 289 290 289 286 287 287 288 289 289 290 289 288 289 290 291 291 292 292 293 293 293 296 296 296 297 296 296 298 297 297 297 296 295 295 295 294 291 291 292 292 291 292 291 291 290 291 290 290 289 290 290 291 291 291 291 291 291 293 290 288 288 288 289 290 291 289 290 288 290 293
281 282 282 279 279 276 275 276 275 274 271 276 277 276 276 275 282 284 284 286 284 285 284 285 287 288 289 288 287 288 287 287 288 289 288 289 289 288 288 289 290 290 289 291 292 293 293 294 295 295 296 296 296 296 297 297 297 297 296 296 295 295 293 292 292 291 290 289 292 292 291 292 290 292 290 290 289 289 289 291 291 291 291 292 293 289 289 290 289 289 288 287 288 289 288 288 288
282 280 280 278 279 275 275 265 269 271 269 274 277 277 277 274 281 284 285 283 283 288 288 289 290 292 292 291 288 287 286 287 288 288 289 288 288 289 289 289 289 289 289 291 291 292 293 294 294 295 294 294 295 296 296 297 297 296 296 296 295 295 294 294 294 293 292 292 293 293 291 289 290 289 288 289 289 288 290 290 290 290 291 290 291 290 289 289 288 287 287 288 288 286 287 289 287
281 279 278 276 272 269 269 268 272 269 270 277 276 278 278 279 285 286 288 290 289 286 288 291 291 291 291 292 292 289 287 286 287 288 287 288 288 289 289 289 289 289 291 291 292 292 293 293 293 294 295 294 295 295 296 296 296 296 296 296 295 295 294 295 294 294 293 293 293 293 291 291 290 289 290 290 290 289 290 290 289 290 290 290 290 288 287 287 287 287 287 287 287 287 288 288 288
280 281 274 270 269 266 263 260 261 265 273 276 277 278 277 281 285 289 290 292 289 288 289 289 289 290 291 291 290 289 289 287 287 287 287 287 288 288 289 289 290 290 290 291 291 292 293 294 293 294 295 294 294 295 295 296 296 297 296 296 296 295 295 295 295 295 294 294 294 294 293 293 292 292 292 291 292 290 290 291 291 290 289 289 289 288 287 286 286 287 287 287 286 287 286 287 288
281 278 278 276 265 265 267 261 271 271 272 275 274 274 275 279 285 285 287 287 287 287 286 286 286 286 286 287 286 286 287 287 285 286 287 288 289 288 289 290 290 290 290 291 291 292 292 293 293 294 294 293 294 294 295 295 296 296 296 296 296 295 295 295 295 295 295 294 294 294 293 293 293 293 292 293 290 290 290 289 289 289 288 287 288 287 288 286 286 287 287 286 287 285 286 286 286
279 278 279 277 276 274 275 265 267 266 269 270 273 277 278 284 287 290 293 287 287 284 282 281 283 284 282 284 285 287 287 287 286 286 287 287 288 287 288 288 290 290 290 290 291 291 292 293 293 294 294 294 294 294 295 296 296 296 296 296 296 296 296 295 295 295 294 294 294 294 294 293 293 293 292 290 289 290 289 289 289 288 287 287 287 287 287 286 286 286 286 286 286 285 285 285 285
281 282 277 278 278 275 268 269 267 269 268 272 270 278 282 285 288 290 285 283 286 283 283 282 283 283 281 283 285 285 286 286 287 286 287 288 286 286 288 288 289 289 290 291 292 292 293 293 293 293 294 293 293 294 295 295 296 295 296 296 296 295 295 295 295 295 295 294 294 294 294 293 292 291 291 290 289 288 289 289 288 288 287 287 286 287 287 286 286 286 286 285 285 283 284 284 283
281 277 278 281 281 279 276 273 266 262 267 272 272 276 279 278 282 286 286 285 288 286 286 283 284 282 283 286 286 286 287 287 286 286 286 287 288 288 288 288 289 290 291 291 292 292 293 293 294 294 294 293 294 294 294 295 295 295 295 295 295 295 295 295 295 295 294 293 293 293 292 291 292 292 291 290 289 288 288 289 288 288 287 286 286 286 285 284 284 284 284 284 284 282 283 282 282
281 281 281 281 273 275 272 269 268 267 266 267 272 274 275 278 283 284 287 286 287 288 286 284 286 287 287 287 287 287 285 285 286 286 287 288 288 289 289 289 289 289 290 291 292 292 292 292 293 294 294 295 295 295 295 295 295 296 296 296 295 295 295 295 295 294 293 293 293 293 292 293 291 290 290 289 288 288 288 288 287 287 286 285 284 284 284 284 284 284 283 283 281 282 283 282 281
280 282 280 276 278 270 271 274 268 270 268 266 272 270 279 281 281 282 287 288 287 287 285 286 287 286 286 286 287 287 287 287 286 287 287 288 288 289 289 289 290 290 290 290 291 291 292 293 292 293 293 293 293 293 294 294 294 295 295 294 294 295 295 295 294 294 293 293 294 293 292 291 292 291 290 290 289 288 287 287 287 286 285 285 284 284 284 284 283 284 284 283 282 282 282 282 281
279 279 275 277 275 276 277 273 274 273 262 262 264 273 278 283 285 285 288 289 289 287 288 287 288 289 287 285 286 287 286 286 287 287 287 288 288 289 289 288 289 288 288 289 290 291 292 292 293 293 293 293 293 294 294 295 295 295 294 294 294 294 294 294 293 293 293 293 293 293 293 293 291 290 290 289 288 288 287 287 286 286 286 285 284 284 283 283 283 283 283 283 281 282 282 282 281
282 282 280 282 277 274 272 275 270 265 271 272 263 274 280 287 286 289 290 290 288 286 286 288 287 287 287 287 285 285 286 287 287 287 287 288 288 288 288 286 286 286 289 289 290 290 291 292 293 293 293 293 293 294 294 295 295 295 294 295 295 295 295 293 293 293 293 293 293 293 293 291 291 290 289 289 288 288 287 287 286 286 285 285 284 284 283 283 283 283 282 283 282 281 282 281 280
Wind_Speed
7 6 5 3 1 1 1 6 1 2 2 4 3 0 3 0 1 2 3 2 0 1 1 1 2 3 2 2 3 2 3 6 7 7 2 2 1 5 6 6 2 1 7 5 5 4 4 9 11 10 10 10 9 8 7 7 6 5 3 2 2 1 1 2 3 4 4 5 7 7 8 9 9 10 10 10 11 11 11 11 11 12 13 14 14 15 15 16 18 18 18 19 18 18 18 18 18
4 6 4 1 0 2 0 1 2 2 3 3 6 1 3 3 1 4 3 6 2 0 0 0 1 1 1 1 1 0 4 9 7 1 3 3 6 1 6 5 2 6 6 5 4 4 2 5 11 10 10 10 9 9 8 7 6 4 3 2 2 1 1 2 2 4 5 6 7 7 8 9 9 10 10 10 10 11 11 11 11 12 13 14 13 14 15 17 18 17 18 19 19 18 18 18 19
4 6 3 3 3 4 1 3 3 1 0 4 7 6 2 1 4 6 8 4 2 1 0 1 0 1 1 0 2 2 5 1 3 3 2 3 1 3 6 4 3 3 7 5 5 4 3 5 11 10 10 10 9 9 8 7 6 5 3 2 1 0 2 2 3 4 5 6 6 7 8 8 9 9 10 10 10 10 10 11 11 12 13 13 13 14 15 17 18 19 19 19 17 18 18 18 18
3 1 0 2 0 3 1 2 2 4 2 4 4 5 2 2 6 6 5 6 1 1 0 1 2 1 1 3 3 2 6 3 5 4 1 2 7 4 8 6 5 3 4 5 5 4 3 5 10 10 10 10 9 9 8 7 6 4 3 2 0 1 1 2 3 4 5 5 6 7 8 8 9 9 9 9 9 10 10 10 11 11 12 12 13 14 15 18 18 19 19 19 16 17 18 18 18
3 2 1 3 3 1 1 0 1 3 4 4 3 4 4 5 7 4 2 2 2 0 1 1 0 0 2 2 0 1 3 3 3 4 1 3 2 3 8 6 5 5 5 4 5 4 4 7 10 11 10 9 9 9 8 7 6 5 3 2 0 1 1 2 3 4 4 5 6 7 7 8 8 8 9 9 9 10 10 10 10 11 11 12 14 14 16 18 18 19 19 20 16 17 18 18 19
1 1 2 1 0 2 4 0 1 3 7 4 1 2 3 3 3 3 3 2 0 0 1 1 0 1 1 3 5 2 3 2 1 1 2 2 5 5 9 7 6 5 5 4 4 4 5 8 10 11 10 9 9 9 8 7 6 5 4 1 1 0 1 2 3 3 4 5 6 7 7 8 8 8 9 9 9 10 10 10 12 11 12 13 14 15 16 17 17 19 18 19 16 17 18 19 19
1 3 3 3 2 3 3 3 5 5 8 7 3 5 3 3 3 1 1 1 0 0 1 0 0 1 2 3 2 5 3 0 1 1 6 1 4 6 9 7 7 6 5 5 4 4 5 8 11 10 10 9 9 9 8 7 6 5 3 2 1 0 1 2 2 3 4 4 6 7 7 8 8 8 8 9 9 9 10 11 11 11 12 13 14 14 15 17 17 19 19 19 17 17 18 19 19
0 1 1 1 1 2 1 2 5 5 4 7 3 3 5 3 1 1 2 1 1 2 0 2 1 2 8 4 2 2 2 3 1 1 2 1 5 6 7 8 7 6 6 5 4 4 6 9 10 10 10 9 9 9 7 7 6 5 4 3 2 1 2 2 2 3 3 4 5 6 7 7 8 8 9 9 9 10 10 11 11 11 11 11 12 14 16 17 17 18 18 19 17 17 18 18 19
2 3 0 3 2 2 0 5 4 2 6 2 7 7 6 4 4 3 2 1 2 0 1 1 2 1 3 7 5 3 5 2 3 4 2 4 7 8 7 8 9 7 6 5 4 4 4 8 10 10 10 9 9 8 8 7 6 5 4 4 2 1 2 2 2 3 3 4 5 6 6 7 8 8 9 9 9 10 10 11 11 11 12 12 13 14 16 17 18 18 18 18 18 17 18 19 20
1 1 2 2 3 4 2 5 1 5 4 3 3 6 4 1 3 2 2 2 3 0 1 1 2 6 2 6 7 5 1 4 2 0 2 5 5 6 7 9 8 10 7 6 5 5 4 6 10 10 10 9 9 8 8 7 7 6 5 4 3 2 2 2 3 3 3 4 5 6 6 7 8 8 8 9 10 10 11 11 11 11 12 12 13 15 17 17 18 18 17 17 17 18 18 19 19
2 4 2 2 1 3 5 6 4 5 3 4 8 8 8 2 4 2 2 1 0 2 1 4 1 6 1 5 6 2 4 3 2 5 6 5 5 8 7 6 6 8 10 7 6 5 4 5 8 11 10 10 9 9 8 8 7 6 6 4 4 3 2 3 3 3 3 4 5 5 6 7 8 8 8 9 9 10 11 11 11 11 11 12 14 15 16 16 18 17 17 18 18 17 18 19 18
0 1 1 3 4 7 5 3 4 7 7 2 3 1 1 5 2 1 2 2 1 2 3 7 1 4 1 2 4 1 5 4 7 2 3 4 6 5 5 5 5 5 6 9 5 5 5 4 4 7 10 10 9 9 8 8 7 7 6 5 4 3 3 2 3 3 3 3 4 5 6 7 7 8 9 9 9 10 10 11 11 11 11 11 12 14 15 16 17 17 17 17 18 19 18 19 18
3 2 5 3 4 2 1 1 6 2 4 4 2 1 1 5 4 4 3 2 1 0 4 11 2 0 4 3 5 6 3 5 4 1 4 4 4 3 3 4 4 4 3 4 6 6 5 5 5 4 6 9 8 7 6 8 8 7 7 6 5 4 3 2 3 2 2 3 4 5 6 7 8 8 9 9 9 9 10 11 11 12 12 12 13 13 14 15 16 17 17 17 17 18 18 18 18
3 6 7 4 2 2 3 3 0 2 5 4 2 1 1 1 3 3 4 1 4 3 2 4 1 4 5 2 8 4 4 3 1 1 3 2 2 2 3 2 3 4 3 5 6 6 5 5 5 5 5 5 4 5 6 7 8 8 7 6 6 4 3 2 2 2 2 2 3 4 6 7 8 9 9 9 8 9 10 10 11 12 12 12 13 14 15 15 15 16 16 17 17 17 17 17 17
3 2 3 2 1 1 3 2 3 3 5 1 0 0 1 4 2 2 5 3 9 5 1 2 4 4 6 6 8 2 1 4 1 3 4 3 2 1 1 1 2 3 3 4 4 4 6 5 6 5 4 4 4 5 3 4 7 7 7 7 6 5 4 3 2 1 1 2 3 4 5 6 7 9 9 8 8 9 9 10 10 11 11 11 12 14 14 15 15 16 15 15 16 16 16 16 17
3 5 2 2 3 4 4 3 1 1 7 2 2 0 0 3 2 1 5 4 2 1 1 4 1 5 2 5 4 2 2 1 2 5 5 3 2 1 0 1 2 3 3 3 4 5 4 5 5 5 5 4 4 4 4 4 5 6 6 7 7 6 5 4 3 2 2 2 3 3 4 4 5 5 8 5 7 9 9 8 9 10 10 11 12 13 14 14 14 15 14 15 16 16 15 15 16
1 2 1 1 6 4 4 3 5 3 3 3 4 0 1 1 0 3 1 0 2 4 1 3 6 0 5 6 2 3 3 2 4 5 5 3 2 2 1 2 2 3 3 4 4 6 5 5 5 5 5 5 5 4 4 4 4 6 6 7 7 6 5 4 4 3 1 2 2 3 4 2 2 3 4 4 6 4 8 8 9 10 10 10 11 12 13 13 14 14 14 15 15 14 14 12 14
1 3 3 5 4 5 5 6 8 2 0 1 0 1 2 3 1 1 0 2 3 3 4 5 5 8 7 5 0 0 1 5 5 7 5 5 3 4 4 5 4 7 6 6 6 6 5 5 6 6 5 5 5 5 3 3 3 4 4 4 3 4 4 4 2 1 1 0 2 2 1 1 1 3 3 5 3 3 5 8 8 9 10 10 10 11 12 12 13 14 14 14 14 14 15 6 6
3 1 2 9 5 6 6 4 6 2 4 2 0 1 3 4 1 1 2 5 2 5 5 2 8 11 12 9 5 0 4 4 5 6 9 9 8 10 9 7 7 4 6 7 7 7 6 6 5 6 6 5 5 4 3 3 3 3 4 4 3 4 3 2 2 1 1 1 1 1 0 0 1 1 2 3 3 5 4 8 8 9 9 9 10 10 10 11 12 12 13 13 13 12 8 6 6
2 4 5 5 6 4 4 3 3 6 1 2 2 0 3 2 1 0 2 9 5 10 9 2 5 12 11 10 3 5 5 6 6 8 9 11 10 11 8 8 8 8 9 9 8 4 6 7 7 6 7 5 5 5 5 4 3 3 4 4 4 4 3 2 2 2 1 1 1 1 0 0 0 1 3 5 4 3 5 6 8 8 8 8 10 6 9 10 12 12 12 13 8 5 6 6 6
1 1 3 2 2 1 4 6 8 5 1 1 0 0 1 4 4 0 2 7 13 13 7 9 12 12 13 8 5 4 6 6 7 7 9 10 9 8 10 11 13 12 7 2 3 7 8 7 5 6 5 5 5 5 4 6 4 3 3 3 3 3 4 3 3 2 2 2 2 1 1 1 0 1 1 2 2 3 3 4 4 5 4 4 7 5 5 6 6 7 7 7 5 6 6 6 6
3 5 2 2 1 1 6 6 3 3 2 1 0 1 5 0 0 3 5 9 16 4 3 10 13 12 9 10 5 4 6 9 9 9 12 12 13 13 9 7 5 3 2 5 9 7 8 7 7 7 5 5 6 6 7 5 4 5 4 5 3 3 3 3 2 3 3 3 2 2 1 2 1 1 2 2 3 4 3 4 4 4 4 4 4 5 5 5 5 5 5 6 6 6 6 6 6
4 2 2 4 2 2 1 0 3 4 1 3 1 3 1 0 4 4 6 16 20 2 2 7 9 9 6 2 2 4 7 10 11 14 13 12 12 12 11 9 8 9 7 9 7 6 6 5 7 5 7 6 6 5 4 4 6 6 5 4 4 5 3 3 3 3 4 3 3 3 3 2 1 1 2 2 3 3 2 3 4 4 3 4 4 4 5 4 4 5 5 5 5 6 6 6 6
2 6 1 2 5 6 0 1 3 3 5 5 2 1 2 2 8 0 6 18 17 10 7 9 8 4 0 4 4 9 10 12 15 16 15 17 16 17 14 12 11 5 4 9 7 7 7 9 7 6 7 6 6 5 4 6 4 4 4 3 4 3 3 4 4 4 3 3 3 3 2 3 2 1 1 1 1 1 2 2 2 3 3 3 3 3 4 5 5 4 4 5 6 6 6 7 6
3 3 2 2 2 5 3 3 2 1 6 1 2 2 7 6 5 5 19 20 6 13 7 11 10 6 6 7 10 8 8 8 10 10 8 9 7 7 6 6 5 5 8 9 7 7 9 8 6 8 7 7 6 6 6 6 5 5 4 4 5 4 4 5 5 2 4 3 2 3 4 3 2 2 2 1 0 1 2 2 3 3 2 4 4 3 3 4 5 5 5 5 5 6 6 7 6
5 6 0 1 3 3 3 2 5 5 3 2 1 9 9 8 6 10 27 22 8 5 2 4 4 6 8 10 12 10 10 12 10 9 13 10 7 7 10 9 7 9 14 10 7 9 7 6 8 10 10 9 7 6 7 6 6 6 6 5 6 4 5 5 2 3 3 3 3 3 3 4 4 4 3 2 1 1 2 2 3 3 3 3 4 5 4 3 4 5 4 5 5 6 6 6 6
3 2 3 2 4 3 2 5 4 1 3 2 5 7 5 1 2 14 2 1 3 2 4 2 0 6 9 7 8 8 10 13 13 9 5 6 8 11 12 7 9 14 7 9 9 9 7 5 8 9 8 7 6 7 7 7 6 7 7 6 5 6 5 3 3 4 3 3 3 4 3 3 3 3 4 3 2 1 1 2 3 3 3 4 3 3 3 3 2 3 3 4 5 5 5 5 5
1 1 2 5 5 3 6 4 10 0 5 5 5 8 5 3 0 14 17 1 2 6 10 9 7 9 8 7 8 7 7 12 6 5 12 10 12 12 11 12 14 10 9 13 11 6 6 9 10 8 9 8 8 8 7 7 7 7 5 5 6 5 4 5 4 4 4 4 3 4 4 3 3 3 4 3 3 2 2 2 2 3 3 3 3 3 3 3 2 3 3 3 3 4 5 6 5
0 0 4 6 7 5 2 6 2 4 4 3 5 3 9 4 10 23 12 4 6 6 11 10 8 9 8 7 7 7 10 8 5 8 14 14 10 9 14 14 13 11 11 12 9 6 10 9 9 9 8 7 9 10 9 8 7 5 6 6 6 5 5 4 5 5 5 4 4 4 4 4 3 4 3 4 4 3 2 2 2 2 2 2 2 2 2 3 3 4 5 4 6 5 6 6 6
1 3 1 7 6 7 4 1 1 4 3 4 2 7 10 7 19 17 7 5 7 8 9 8 7 7 7 6 6 8 7 6 8 13 13 12 10 10 13 12 11 11 10 7 5 10 9 6 6 6 7 9 10 8 7 7 6 6 5 6 5 5 5 6 6 5 4 4 4 4 4 3 3 3 4 3 3 4 2 2 1 2 2 2 2 2 4 3 5 5 3 6 6 6 6 5 7
1 0 2 2 4 5 1 1 0 3 0 2 0 4 13 1 6 9 4 1 1 7 8 8 8 8 8 7 6 9 11 8 12 13 13 12 10 9 13 9 11 12 7 6 12 13 8 8 6 6 8 9 8 8 8 7 5 6 6 6 6 6 6 7 6 4 4 5 4 4 4 4 3 3 3 5 3 4 3 2 1 1 1 1 3 3 3 4 5 5 3 7 6 6 6 6 7
1 3 5 3 4 6 9 1 1 1 1 1 1 6 15 6 14 9 2 2 2 2 8 10 10 11 11 10 9 9 12 8 10 12 13 11 10 11 12 13 10 10 13 13 10 7 9 8 7 8 7 9 9 9 8 7 7 7 6 6 6 5 6 6 6 6 5 5 5 5 4 4 3 3 3 3 4 3 4 3 1 0 1 2 3 2 3 5 4 5 4 3 8 6 6 7 6
4 2 5 3 1 5 9 1 2 1 0 0 3 9 9 5 7 3 1 1 2 7 14 15 16 15 13 10 8 8 9 10 8 12 12 11 11 12 11 11 11 14 12 10 11 9 9 8 9 9 10 11 9 7 6 5 5 5 6 6 6 5 6 6 5 4 4 5 5 5 4 4 4 3 3 3 4 4 4 4 1 1 1 3 3 3 4 2 3 6 5 4 6 6 7 7 7
4 2 3 2 3 3 3 5 1 1 1 2 2 3 14 7 11 17 7 4 8 11 15 15 15 14 13 10 9 10 10 11 14 13 11 9 10 11 10 10 9 9 9 10 11 12 13 11 11 11 10 10 10 9 8 7 6 5 5 5 4 6 5 4 4 5 5 5 5 5 4 4 4 4 3 3 3 3 4 4 3 2 2 3 4 4 3 2 3 5 6 4 4 7 6 8 7
0 1 1 5 1 4 6 3 1 1 0 3 2 7 22 17 13 17 18 6 7 14 15 13 15 15 15 13 12 12 12 13 16 13 6 7 9 9 9 9 7 8 8 10 9 9 7 7 7 8 9 9 8 7 5 4 4 3 2 3 4 4 2 3 4 4 5 5 6 4 4 5 4 4 4 3 4 4 4 4 4 3 3 4 4 4 3 3 4 3 8 6 6 5 7 6 8
0 4 2 1 4 4 2 5 3 0 4 5 6 10 17 17 9 13 14 7 6 16 12 10 13 12 13 14 12 11 11 13 14 7 5 6 7 7 8 7 7 7 7 7 8 7 8 6 6 6 7 8 6 6 6 6 5 6 6 2 2 2 2 3 3 4 5 6 5 5 5 5 4 4 4 4 4 4 5 4 4 3 3 4 4 4 3 4 6 7 7 10 9 6 5 6 6
4 3 1 4 5 7 4 5 4 1 2 9 8 7 13 20 16 15 15 13 8 15 16 13 13 13 12 12 12 11 11 14 7 5 5 6 7 7 6 6 6 6 6 7 8 9 9 11 10 11 8 8 9 8 7 8 6 4 2 6 6 6 6 4 4 4 5 5 5 5 5 6 5 4 4 4 5 4 4 4 4 3 3 3 4 4 4 4 3 5 7 6 11 8 4 3 4
0 0 1 7 1 8 5 2 2 3 1 4 1 6 15 18 18 15 13 8 16 17 13 14 14 10 10 11 13 12 12 7 7 8 5 5 5 4 4 5 5 8 7 8 11 12 11 9 11 11 8 9 10 10 10 8 7 8 7 7 4 5 5 6 4 5 6 5 5 5 5 5 5 5 4 4 4 5 5 5 5 5 4 4 3 3 3 3 4 5 7 6 2 7 6 5 5
1 3 2 3 6 5 9 2 2 1 1 10 3 8 18 21 19 19 16 12 12 10 10 13 8 11 10 9 10 11 9 12 8 8 5 4 4 3 4 5 6 8 9 11 10 9 8 9 10 9 10 10 10 9 9 9 5 5 5 5 7 3 0 1 3 4 5 6 5 5 5 5 5 4 4 4 5 4 6 6 6 5 5 5 5 4 4 4 5 7 7 9 6 1 3 2 1
3 1 0 7 3 4 8 3 3 1 1 5 5 8 16 18 13 14 16 8 7 6 6 9 8 11 13 12 7 7 10 10 11 10 8 4 3 3 3 5 6 6 5 5 6 9 8 9 8 9 10 9 10 10 10 6 6 5 4 5 4 4 4 3 2 2 3 2 5 4 3 4 5 5 4 4 4 5 6 6 5 5 6 5 6 6 5 5 5 4 4 5 8 7 4 5 0
1 3 3 3 3 4 6 5 5 5 1 1 7 7 9 5 8 9 5 1 3 6 4 6 7 10 11 9 9 8 11 9 11 11 8 4 3 4 6 5 3 6 6 8 9 10 10 13 12 12 11 11 9 9 9 8 8 6 6 6 5 5 5 4 3 2 3 3 2 3 6 4 4 5 4 4 5 6 5 5 6 6 6 5 4 6 6 7 7 6 6 7 8 9 7 3 2
4 5 7 5 0 3 4 5 5 7 3 3 5 8 5 6 7 9 11 7 10 2 4 8 10 5 4 6 9 6 6 6 9 10 9 6 4 4 3 4 5 7 8 9 10 10 8 9 8 8 7 8 10 10 10 10 10 10 8 8 6 4 5 5 9 10 8 7 8 4 3 4 4 4 4 4 5 4 5 5 5 6 5 5 5 6 5 4 5 5 7 8 7 4 8 6 4
1 2 1 3 3 1 1 5 4 5 3 2 3 2 10 3 10 11 12 8 14 12 5 9 9 8 3 6 5 5 5 6 5 6 7 7 6 4 4 6 7 8 9 4 5 7 7 7 8 10 10 9 8 9 10 9 9 9 12 12 10 10 10 8 4 4 8 6 4 5 6 4 4 6 4 4 4 4 5 5 5 6 6 6 4 5 5 7 7 7 4 5 7 4 4 7 7
3 1 2 3 2 1 0 2 2 3 3 5 2 4 3 10 10 9 5 6 14 13 13 9 6 5 5 4 5 5 5 5 5 7 7 6 5 5 7 7 7 8 4 4 5 5 8 10 10 11 9 9 9 9 10 10 11 10 9 8 8 9 10 10 8 5 4 5 6 5 4 5 4 4 5 5 4 4 5 5 5 5 5 5 5 6 7 5 4 2 4 4 3 5 6 8 7
2 2 1 2 2 2 2 2 1 0 3 10 2 0 1 5 10 5 2 7 10 10 9 4 4 5 5 6 7 5 5 6 5 7 6 7 6 5 5 5 5 4 5 7 8 7 6 5 6 5 7 8 8 9 11 10 10 11 11 9 8 7 7 4 5 3 5 5 6 4 5 5 5 4 4 5 5 5 4 5 5 5 5 5 5 5 4 4 6 6 5 5 6 6 6 4 6
1 2 3 4 4 4 2 2 2 3 3 9 1 1 2 8 8 4 1 1 7 7 7 7 7 7 8 9 9 7 5 5 4 5 6 7 7 5 4 4 3 5 4 4 4 4 5 5 6 7 8 7 7 9 9 10 9 9 9 9 10 8 5 4 5 6 6 5 7 6 5 5 6 5 5 4 4 4 4 4 5 6 6 6 5 6 4 4 4 5 6 7 6 6 4 5 7
3 2 0 3 5 3 2 6 2 3 0 8 2 2 1 5 7 7 3 2 2 2 5 5 8 7 7 6 7 6 7 6 6 6 5 6 6 5 3 4 3 2 3 4 4 5 5 6 7 8 8 6 6 9 10 11 9 9 10 10 11 9 7 7 6 5 5 4 7 7 7 7 6 6 6 5 4 4 4 4 5 6 5 5 5 5 7 7 6 6 5 4 5 6 6 5 3
3 1 1 4 1 6 3 4 4 1 6 4 1 1 1 4 7 7 7 2 3 0 7 12 14 14 12 9 5 5 5 6 6 6 7 5 5 3 1 3 3 4 3 4 5 5 6 6 6 7 6 7 7 8 9 10 10 10 8 9 10 10 10 9 10 10 10 10 9 9 7 5 6 5 4 4 5 4 5 5 5 5 6 5 6 6 5 5 5 4 4 6 5 4 4 6 5
4 3 6 2 5 6 3 3 1 3 6 1 4 0 2 9 13 7 11 14 11 7 8 11 12 13 13 12 13 7 6 6 6 6 5 5 4 4 4 4 3 4 6 5 6 6 6 7 8 10 10 8 9 9 11 11 10 10 10 10 9 8 9 10 10 10 9 9 9 8 7 8 6 6 7 7 7 7 6 6 7 7 6 6 5 5 4 4 5 5 5 5 6 6 7 7 7
4 3 4 4 1 1 3 5 1 5 4 4 1 1 3 7 13 11 14 11 6 7 8 9 9 11 12 13 12 12 11 7 7 6 6 6 5 5 5 5 5 5 5 7 6 6 6 7 8 10 11 9 8 8 10 10 11 11 10 10 10 9 10 10 9 10 9 9 8 9 10 9 9 10 8 10 8 7 6 7 6 6 5 5 5 5 5 5 5 6 5 6 7 7 6 7 8
5 2 3 5 5 3 2 2 3 3 3 3 3 1 7 0 6 2 5 6 7 7 8 7 7 8 9 10 12 12 10 7 4 5 6 6 6 5 5 5 5 5 5 6 7 7 7 7 8 10 9 8 9 10 9 11 11 10 9 10 9 8 10 9 10 9 9 9 8 8 8 7 8 8 9 8 5 7 7 5 5 5 5 5 5 5 5 5 5 5 6 7 6 7 8 8 7
1 3 5 4 5 4 3 3 2 1 3 4 2 6 4 7 7 16 13 7 7 1 4 3 8 6 5 8 9 9 8 8 5 5 6 5 5 5 5 5 6 5 5 5 6 7 8 9 9 10 12 11 11 11 11 12 12 10 10 11 12 10 9 8 7 6 7 8 9 9 9 9 9 7 6 4 6 6 7 7 6 6 6 6 7 7 8 7 7 8 7 7 8 5 7 7 6
2 4 3 4 1 5 4 1 0 1 3 8 1 8 8 8 11 10 5 6 7 6 5 2 6 5 4 7 7 6 8 7 6 5 5 6 3 4 5 5 5 5 5 7 7 8 10 10 9 11 10 7 9 11 12 10 10 9 11 11 10 9 10 11 12 11 10 8 7 8 8 8 6 5 6 5 6 6 7 8 8 8 8 7 8 8 8 8 7 6 5 5 4 2 3 4 3
5 1 4 1 2 3 2 2 2 3 3 7 1 6 7 5 10 4 8 8 12 8 8 6 8 5 6 7 6 6 7 7 7 8 7 8 8 6 5 5 6 7 7 7 8 7 7 8 10 11 10 11 11 11 10 10 11 11 11 12 11 11 11 11 10 10 8 7 7 7 5 6 8 8 7 6 6 7 7 8 8 8 7 7 7 4 4 3 3 3 2 2 1 3 4 3 3
1 1 0 1 1 0 2 3 3 1 3 5 5 3 6 6 10 6 12 8 11 11 8 7 8 9 8 7 9 8 5 5 6 6 6 6 5 6 5 6 5 6 7 7 7 6 6 7 7 8 11 13 12 10 9 9 9 9 9 10 11 10 9 9 8 6 6 8 9 8 8 9 6 7 8 8 8 8 8 8 7 6 5 5 4 4 4 5 5 6 4 5 3 5 5 6 5
1 0 1 1 1 1 3 5 2 4 5 3 7 3 7 8 8 7 12 12 10 10 7 7 8 7 8 7 7 7 8 6 6 6 6 6 7 6 6 6 6 6 6 6 6 5 7 7 7 9 8 6 6 7 7 9 9 9 8 6 7 8 9 9 9 8 8 10 10 9 9 8 11 8 8 9 8 8 8 8 7 7 7 6 6 5 6 6 6 6 6 6 5 6 6 7 6
1 1 2 1 0 2 2 1 3 3 4 2 1 8 9 11 6 7 14 13 11 8 9 8 8 9 7 6 7 8 8 8 8 6 6 6 7 7 6 5 5 5 5 4 5 8 8 6 9 9 10 9 9 10 9 11 9 11 9 10 10 10 11 10 8 8 9 10 9 9 10 11 6 8 8 8 8 9 9 9 8 8 8 8 8 7 7 7 7 7 7 7 6 7 7 6 6
8 11 9 10 9 3 2 8 1 1 2 5 3 10 11 11 8 11 15 13 8 7 6 9 8 8 9 8 6 6 9 9 7 9 7 7 7 7 5 4 4 4 6 7 7 6 8 10 10 8 8 9 10 10 11 11 10 9 11 11 12 10 10 8 10 10 11 11 10 11 11 6 8 8 8 9 9 8 7 8 8 8 8 8 8 9 9 8 9 9 8 6 8 9 8 7 6
Wind_Direction
335 327 310 297 65 84 47 4 26 309 51 256 320 314 252 15 225 328 236 342 252 239 199 35 142 137 166 205 191 197 213 134 208 127 213 238 239 253 217 234 327 173 158 157 171 193 231 174 174 174 178 180 182 183 179 178 184 190 186 177 166 106 84 37 52 30 10 359 354 351 350 346 344 343 344 344 343 342 345 344 339 336 337 338 340 334 332 333 340 344 349 344 341 337 336 336 337
332 327 322 288 51 57 320 117 99 342 34 353 247 117 256 291 32 227 225 194 199 181 279 220 256 63 50 101 198 53 283 219 174 192 274 237 300 285 199 206 166 166 158 156 166 192 223 186 172 174 179 180 182 180 176 181 185 183 176 185 150 126 38 71 34 28 19 3 355 351 349 347 346 347 346 347 344 346 349 345 339 336 338 337 336 332 331 339 342 342 341 343 338 336 334 336 337
339 349 360 15 35 73 96 37 276 62 21 274 276 213 325 290 222 256 227 200 224 256 279 210 147 352 339 60 330 156 259 290 306 274 233 327 113 247 196 173 169 186 157 157 163 182 197 181 174 174 178 181 182 178 180 182 184 184 186 159 166 351 74 40 37 32 19 6 353 349 348 350 349 350 350 349 348 350 349 347 339 337 339 336 332 331 332 339 341 338 339 343 336 333 333 336 336
347 315 104 55 291 31 70 23 96 135 208 219 311 274 200 206 256 240 254 245 296 347 358 191 146 215 164 268 222 40 273 298 199 165 273 225 201 197 171 151 152 132 141 155 165 173 178 186 171 177 180 180 181 180 181 185 185 181 170 162 270 52 38 41 37 28 22 5 353 349 350 353 353 353 353 353 352 351 348 346 340 341 337 334 332 329 336 337 342 342 339 339 339 333 332 336 336
18 299 90 93 107 4 104 244 153 113 235 192 219 273 250 222 262 295 297 305 256 71 41 212 17 270 185 213 215 199 254 239 285 199 262 255 249 176 148 138 126 146 165 172 166 169 183 183 179 179 180 183 183 179 181 185 185 179 169 185 260 73 31 32 32 30 21 7 354 352 354 354 356 358 357 355 353 350 348 346 336 340 340 335 333 334 332 338 341 346 343 338 344 332 336 336 337
14 31 352 100 295 158 59 45 288 218 224 152 221 257 228 231 243 250 277 309 270 144 144 54 192 357 318 221 188 212 210 24 174 249 180 254 196 178 145 139 136 157 178 173 174 171 183 192 181 180 184 186 183 184 186 187 192 186 181 187 132 138 32 22 22 24 21 6 356 355 355 356 357 359 358 354 350 347 349 347 342 344 342 340 335 332 333 341 344 346 344 337 346 338 338 337 338
327 42 352 31 24 54 182 184 228 216 266 165 234 259 281 287 239 140 315 29 230 56 159 256 56 322 319 300 310 242 193 90 111 245 173 356 136 148 142 140 142 170 179 181 182 185 186 198 184 185 187 190 188 189 191 194 195 190 188 171 220 247 346 2 18 18 11 10 2 358 357 358 357 357 356 353 349 346 346 347 345 344 344 339 334 337 341 343 347 346 347 346 348 344 336 335 336
23 138 304 115 223 31 211 220 237 153 272 175 229 243 273 272 163 171 224 127 263 176 350 293 331 109 250 49 248 280 319 218 227 303 281 132 136 146 145 144 148 177 184 187 189 194 192 199 189 187 191 194 194 194 198 198 198 195 192 214 215 274 331 348 1 5 11 8 7 2 358 357 356 356 355 353 353 347 343 344 345 345 340 337 332 340 343 343 347 345 350 348 350 344 338 335 336
329 88 295 72 207 45 45 232 249 230 280 275 266 227 277 270 184 154 199 238 341 227 296 200 227 93 262 354 232 262 287 291 310 267 192 164 158 160 152 159 160 173 188 189 197 200 197 206 191 190 195 197 201 203 203 205 205 205 205 214 225 281 316 328 341 357 3 11 10 6 360 357 356 356 358 359 356 349 343 343 344 343 339 340 342 343 345 344 344 346 349 352 347 348 341 338 338
29 87 261 163 117 242 346 280 147 236 217 236 264 278 245 188 186 194 193 272 223 81 250 270 158 216 325 296 303 306 249 325 302 359 211 183 168 155 163 176 172 162 178 192 198 200 197 213 199 194 198 201 204 207 207 206 213 211 213 215 230 239 293 316 332 344 5 13 13 12 6 1 357 357 359 3 354 350 345 343 343 342 338 344 342 345 345 346 345 344 347 351 351 348 345 342 339
214 14 131 125 123 243 224 269 257 299 259 303 288 248 245 162 141 190 197 253 270 190 323 144 83 245 339 266 224 245 311 316 146 220 192 180 162 171 172 183 174 165 170 189 195 198 205 205 212 197 201 204 208 208 206 212 215 217 218 226 229 249 266 309 320 338 2 12 20 21 12 3 360 359 359 360 355 348 345 345 342 340 341 345 347 347 347 349 345 344 344 350 351 350 347 345 344
68 135 45 189 202 188 234 210 259 270 294 324 269 354 192 146 119 202 223 245 234 254 201 153 242 138 197 301 285 287 310 291 218 238 171 163 175 184 169 171 166 184 177 178 181 197 203 205 214 209 201 207 209 210 210 214 219 221 222 222 225 232 270 293 310 336 356 16 29 24 17 5 3 358 358 358 354 349 345 345 343 340 341 347 349 348 349 347 346 348 347 349 349 353 356 351 349
138 107 92 106 232 172 206 280 253 285 326 280 218 353 115 120 186 204 195 217 145 359 289 214 95 97 276 200 257 316 322 269 221 258 156 165 177 161 142 169 172 171 161 162 173 197 203 203 210 214 208 205 209 208 211 216 220 223 225 218 217 224 243 280 302 319 357 29 29 27 16 11 359 358 357 356 353 351 346 347 345 343 342 348 350 350 348 347 349 349 348 350 352 357 0 359 349
127 182 130 223 60 127 148 221 314 307 289 244 265 287 203 156 237 186 127 248 233 180 237 189 126 139 259 349 302 335 266 289 276 110 106 119 117 125 157 166 169 169 172 166 190 195 199 206 207 213 211 214 205 209 206 211 217 226 221 218 214 214 219 250 284 319 2 20 19 15 15 3 358 354 352 355 357 352 348 349 346 343 344 351 351 350 347 348 349 349 348 352 359 1 3 359 348
223 148 87 116 142 74 246 176 225 169 252 217 270 154 149 245 137 134 178 219 270 206 140 153 182 116 248 157 282 253 257 321 149 98 90 77 88 105 158 189 192 190 187 198 211 186 209 202 209 211 213 212 208 206 212 212 213 217 221 213 209 206 205 225 254 298 332 343 353 357 2 1 358 348 346 354 356 352 346 351 343 341 346 354 353 349 347 350 351 349 352 354 1 3 4 1 353
149 91 87 173 240 173 259 186 132 106 265 191 272 185 125 277 174 148 250 179 250 319 135 225 201 203 219 164 222 225 275 342 135 98 94 86 69 65 79 253 236 231 224 215 217 222 211 203 208 210 212 211 207 205 207 212 217 206 207 215 203 196 199 213 227 242 290 326 337 357 4 29 3 345 341 353 345 350 342 342 343 343 348 357 355 351 347 352 353 352 353 355 0 7 5 5 5
78 81 250 73 254 159 247 176 150 239 244 274 281 303 193 275 254 245 115 112 266 255 199 219 194 281 220 206 216 255 298 141 112 97 99 107 120 196 266 277 266 265 240 234 222 222 213 207 213 208 214 210 208 205 208 212 217 212 203 202 200 195 194 202 205 225 285 337 351 344 20 24 17 348 338 332 342 342 337 335 343 345 352 356 359 353 347 353 355 353 354 359 3 9 10 4 9
95 204 135 238 194 173 207 181 187 207 144 283 71 221 144 299 320 252 51 301 235 276 258 278 292 260 235 244 162 102 96 134 143 135 158 174 172 209 225 239 220 224 223 234 233 225 211 216 211 212 211 215 204 202 207 208 220 217 202 203 200 196 197 197 209 170 180 104 333 360 20 29 13 337 334 330 342 338 332 332 346 348 354 357 1 354 346 354 356 352 356 358 7 9 7 347 352
174 105 143 236 171 240 166 203 203 130 253 220 244 244 193 241 144 315 343 284 288 299 256 249 260 273 270 264 243 182 142 164 167 177 173 185 191 200 207 209 219 242 237 228 233 214 210 209 211 211 214 207 198 205 206 210 207 216 207 199 203 193 195 205 189 189 171 204 265 284 17 76 339 354 327 333 334 350 335 338 351 351 352 359 2 353 348 352 356 353 355 359 3 2 356 350 351
220 130 239 249 214 242 229 205 218 210 123 268 280 7 162 243 154 326 237 277 292 258 260 278 248 261 262 260 223 204 165 197 197 188 194 199 200 200 201 208 216 221 223 211 217 208 204 210 207 206 206 202 188 204 208 210 211 208 214 205 197 200 203 210 199 201 201 211 223 207 170 182 90 13 343 344 352 5 339 348 353 352 350 356 2 356 350 354 356 355 356 358 359 353 351 360 3
270 108 194 235 214 176 265 192 236 225 173 209 154 154 320 274 216 130 233 325 274 255 223 221 248 249 258 261 234 190 198 201 212 216 211 213 214 215 208 203 200 208 211 203 219 216 210 209 204 213 209 194 193 201 196 207 202 197 225 213 202 202 210 219 218 211 211 212 209 191 168 167 90 54 10 354 13 6 350 352 355 349 340 350 0 356 352 349 359 353 353 350 351 356 356 2 9
100 206 196 170 159 196 256 213 216 172 218 119 136 313 250 51 59 218 195 227 265 254 220 207 229 244 250 261 247 189 199 210 211 212 219 213 209 216 222 240 260 255 182 192 217 216 215 204 202 208 195 201 198 194 197 200 170 199 212 215 204 222 216 223 223 221 220 222 202 167 151 119 69 52 34 17 15 20 353 353 348 335 347 351 356 353 348 358 356 355 352 350 345 352 358 1 17
238 315 248 211 205 221 267 207 231 155 137 175 234 233 21 117 269 231 196 222 254 224 223 206 221 234 247 294 156 199 212 214 213 216 214 219 224 225 219 216 206 214 202 218 210 217 213 207 209 198 202 203 209 203 197 179 189 199 198 192 183 228 211 230 245 234 231 210 184 163 148 147 96 72 48 24 22 17 353 349 342 337 343 352 350 359 347 353 360 356 353 350 345 353 358 10 13
149 248 333 306 177 219 248 292 76 204 149 228 216 9 242 270 298 167 234 243 246 271 269 263 247 243 328 254 215 224 214 213 217 217 211 215 213 215 210 207 213 217 193 226 215 209 208 213 202 191 210 199 209 194 189 192 198 187 200 192 200 211 184 221 234 224 216 205 183 168 146 143 146 108 82 54 5 14 2 331 325 339 355 353 339 3 355 355 2 1 356 2 2 359 4 15 14
190 272 226 249 158 244 296 265 274 206 244 233 328 291 247 210 239 3 266 261 244 261 253 255 268 264 262 252 254 240 241 240 239 233 235 236 234 242 244 233 225 207 225 225 212 209 217 209 188 203 206 204 201 177 193 196 185 189 193 189 205 200 192 215 214 195 198 200 168 156 144 131 124 125 130 106 36 23 341 355 346 347 351 358 355 2 16 358 2 2 5 9 6 6 7 18 16
202 223 181 294 272 296 271 315 251 220 259 175 282 251 260 255 284 265 259 273 273 288 315 287 281 268 254 244 246 241 239 236 235 237 229 226 227 227 233 216 207 212 220 219 203 219 216 197 194 203 202 198 191 171 199 181 187 188 198 199 203 190 204 208 183 186 205 167 173 163 170 151 164 165 144 151 100 10 7 357 356 354 359 353 9 3 354 7 5 1 13 20 20 10 20 7 22
167 222 211 247 264 351 288 218 272 231 219 165 210 262 266 317 68 277 264 296 88 22 300 303 359 252 249 246 249 244 240 242 229 235 259 235 230 222 229 212 211 224 210 225 218 218 209 184 210 207 201 197 175 189 189 193 178 195 199 195 189 198 198 172 185 185 186 185 182 169 166 165 150 144 141 149 120 101 23 24 356 341 15 6 2 352 340 8 12 35 26 25 30 21 23 7 23
99 193 316 283 301 254 252 311 265 82 283 180 214 267 282 284 204 240 244 199 60 333 303 296 288 272 267 259 256 250 238 246 240 214 233 224 224 216 220 208 219 218 203 223 219 199 191 205 209 207 199 191 182 195 189 188 190 198 193 179 196 201 168 177 180 181 188 195 181 174 166 161 148 156 140 148 126 112 61 23 340 10 1 349 360 347 354 4 34 42 40 36 50 48 34 28 24
270 59 317 292 340 336 251 225 288 145 259 156 179 296 267 175 230 238 263 346 350 327 298 291 281 277 274 268 264 254 240 249 220 222 231 228 225 205 220 214 212 209 219 220 211 186 206 204 205 207 196 191 189 193 191 194 190 186 177 191 196 182 183 171 179 191 195 188 183 181 170 159 172 154 168 145 140 123 106 51 15 7 343 344 354 355 8 18 47 46 39 37 50 53 46 35 40
165 42 111 331 350 318 295 319 352 150 250 143 177 285 256 210 231 262 273 346 324 313 286 287 294 290 279 272 267 269 259 249 233 229 232 230 222 211 219 216 205 209 214 210 185 208 206 201 202 191 191 193 197 193 190 186 188 184 185 188 184 174 181 178 194 190 183 178 183 184 166 169 169 170 143 136 127 120 109 98 39 356 348 356 10 22 49 37 58 62 46 63 54 59 55 41 52
213 239 69 263 358 274 286 96 173 159 167 176 90 234 270 133 279 256 312 228 276 280 287 291 288 287 279 264 261 264 264 223 238 238 238 234 226 218 221 217 201 208 207 193 202 211 192 199 185 192 191 196 193 195 189 191 181 178 182 184 184 182 179 188 190 173 176 182 173 179 172 169 167 170 161 143 137 127 119 95 43 344 328 32 47 30 70 56 68 71 55 86 67 64 64 55 61
16 14 297 328 160 280 299 356 142 171 355 48 141 260 262 301 282 290 322 100 101 279 288 290 287 284 283 283 273 266 266 249 240 247 241 237 226 226 217 221 198 198 204 207 205 188 199 197 188 191 185 192 196 193 191 185 180 182 181 181 182 183 178 188 179 184 179 168 173 175 176 173 162 162 170 147 133 144 137 128 164 359 29 68 66 44 61 63 78 80 46 85 98 67 73 67 57
350 171 267 278 202 263 332 352 261 200 56 350 172 259 319 291 262 293 202 14 327 306 294 291 288 284 280 276 273 271 278 275 250 245 244 230 230 224 223 222 201 203 202 196 195 189 197 193 189 186 186 189 191 193 183 178 165 175 181 183 184 176 181 190 185 167 152 166 174 175 176 178 163 163 166 167 135 147 139 135 168 128 90 95 77 62 64 46 94 92 62 46 96 103 86 82 65
289 34 224 210 223 303 297 309 48 352 114 227 262 244 254 251 294 286 260 236 301 289 281 282 284 282 282 282 279 275 273 275 272 258 247 223 234 225 225 224 216 203 199 197 194 188 194 187 188 189 186 184 183 183 181 176 173 168 177 179 174 179 194 185 169 158 173 175 165 179 176 178 173 165 157 166 131 142 150 147 146 134 121 97 86 74 69 60 71 104 91 49 80 107 96 93 87
207 163 310 313 317 220 245 318 270 26 359 219 284 254 271 270 268 276 280 274 262 270 267 272 277 281 285 285 281 276 272 269 266 263 251 231 229 228 220 217 210 200 198 196 190 193 184 185 185 187 178 178 177 170 159 144 130 114 102 134 159 178 159 145 153 172 177 162 176 171 170 178 178 171 162 165 144 150 137 138 144 152 138 113 99 91 80 82 83 80 110 96 66 73 111 104 107
142 170 182 203 294 280 229 242 278 147 286 277 230 244 275 283 275 275 284 266 244 269 273 270 270 274 276 278 279 274 270 269 263 278 257 241 230 224 217 208 205 195 191 185 186 182 184 175 184 185 181 171 154 144 139 142 142 157 154 111 145 183 158 156 181 186 165 176 175 167 172 177 180 177 172 170 163 156 148 153 149 148 149 129 124 117 117 124 125 114 114 115 105 85 73 110 114
105 101 122 254 268 281 279 279 265 324 312 248 251 253 271 279 274 273 272 286 271 267 272 270 268 267 272 273 271 271 268 259 282 283 261 243 238 228 216 195 195 185 185 179 182 189 183 180 172 186 180 164 160 157 163 160 160 165 160 189 191 181 181 178 180 186 185 186 173 173 174 179 178 179 177 164 169 165 156 145 136 147 155 141 146 158 155 141 133 128 125 118 124 118 113 138 132
144 171 285 285 199 280 257 265 354 292 185 284 45 314 282 279 285 277 272 266 266 263 275 271 265 263 264 268 275 270 265 287 295 296 286 281 262 248 209 189 175 181 197 181 190 191 188 178 182 182 167 172 177 175 170 175 180 182 163 179 160 156 158 168 191 210 200 189 181 179 181 176 175 180 181 184 168 163 157 161 159 163 161 147 133 132 140 132 132 133 135 100 71 133 146 181 185
68 204 233 323 277 250 286 315 331 283 100 269 25 335 293 289 287 283 270 255 257 259 241 257 270 279 270 267 265 278 293 287 295 272 283 281 278 263 204 197 200 202 191 195 195 181 179 181 189 176 177 176 181 176 168 180 178 167 160 160 159 141 218 173 170 180 175 183 192 188 179 174 170 179 182 185 172 179 174 168 177 162 165 150 131 137 136 145 162 160 165 143 137 25 131 192 207
138 109 68 249 239 14 310 290 354 277 201 286 338 318 286 287 283 276 274 241 248 257 260 260 249 254 260 258 264 280 287 288 293 298 300 301 280 248 220 212 206 198 184 185 177 184 185 189 186 179 182 182 176 181 179 169 150 123 89 122 110 116 169 136 73 87 139 148 202 202 194 176 174 179 181 187 191 184 177 182 166 166 173 174 160 156 164 166 165 178 176 164 146 141 166 211 207
311 181 191 266 269 240 191 269 315 279 360 77 307 284 291 307 331 329 320 308 278 290 317 286 256 239 257 285 288 253 259 273 286 297 298 305 289 238 217 216 184 196 197 191 186 187 188 192 188 182 178 182 181 175 167 147 123 102 96 75 84 78 59 90 113 185 191 197 190 194 210 185 180 181 180 190 189 193 188 179 173 177 171 179 165 162 173 182 185 182 175 169 178 156 185 194 200
318 238 204 222 181 288 295 314 346 6 336 353 31 351 311 293 304 269 282 305 295 241 334 300 297 292 283 264 262 282 259 254 258 270 280 296 277 271 234 209 195 206 208 203 194 194 187 187 179 178 174 179 178 176 164 156 161 153 145 142 154 173 168 165 196 198 191 199 205 187 189 190 183 184 184 187 200 186 190 187 179 170 179 173 182 179 179 156 175 178 195 183 187 218 161 158 174
32 270 184 233 218 183 331 331 28 344 335 295 52 92 278 313 285 283 278 312 290 300 304 282 284 281 270 243 265 284 287 297 284 276 281 283 276 248 244 216 209 208 220 184 184 192 190 184 182 179 177 180 177 171 167 161 159 167 174 180 181 184 190 215 202 181 187 198 170 187 196 191 191 183 192 191 195 199 191 185 182 182 179 179 175 156 175 193 189 192 172 185 200 168 140 171 179
249 264 132 106 92 49 326 77 94 246 254 290 65 129 218 305 284 242 303 313 289 303 304 287 262 264 266 282 290 293 301 300 294 290 285 272 265 227 232 224 213 219 182 165 188 186 189 188 181 184 180 177 178 169 173 174 170 174 178 188 187 192 196 204 186 185 161 155 177 196 189 206 200 196 190 195 196 196 189 190 184 178 177 184 173 186 191 195 181 171 175 184 168 184 184 180 183
225 213 180 115 108 149 117 74 82 234 24 297 354 252 284 255 264 293 316 302 301 301 290 291 280 281 283 292 297 283 288 294 287 289 283 283 276 253 247 241 231 202 181 187 191 195 192 183 181 174 180 178 179 175 175 184 179 178 182 182 191 209 202 178 143 139 160 166 181 195 197 208 209 209 202 197 197 195 193 188 182 182 182 185 188 187 190 178 188 178 171 174 187 198 201 190 158
246 148 107 96 81 69 78 84 55 336 56 280 117 333 221 283 278 314 343 227 291 278 292 284 276 282 294 303 303 305 311 299 282 256 273 277 274 272 242 243 219 211 196 180 168 155 167 163 175 181 192 185 176 177 181 184 184 174 181 188 196 196 176 139 149 164 174 175 191 198 206 206 210 212 213 205 199 197 194 184 184 191 194 188 185 185 178 183 195 194 193 189 182 182 192 179 191
122 131 56 2 34 32 22 61 82 54 23 261 279 307 147 299 264 232 163 193 201 305 313 293 292 287 274 259 265 283 293 300 307 310 279 268 273 275 275 213 218 200 179 168 167 170 167 174 181 187 196 178 174 183 181 188 189 184 190 191 195 191 181 165 160 177 171 176 200 204 203 212 205 214 203 208 199 192 195 192 190 199 194 190 183 172 189 192 195 196 191 176 176 178 176 172 154
121 71 98 16 346 2 39 342 33 93 274 262 281 257 189 211 292 281 244 274 224 91 294 293 302 305 304 299 271 262 277 292 302 306 306 311 320 307 321 240 207 194 166 173 178 168 172 179 176 189 189 186 184 186 189 194 191 194 197 190 195 196 178 180 189 192 190 194 196 201 201 197 219 220 213 215 210 198 195 198 199 194 193 187 195 191 189 190 187 182 177 185 186 178 163 165 166
69 68 34 69 279 21 320 16 309 200 205 280 344 288 342 240 246 266 287 282 282 238 236 269 281 287 296 300 304 314 305 304 297 292 294 297 278 268 259 246 223 194 195 191 187 182 181 181 182 186 200 191 190 186 193 195 193 199 195 195 201 190 188 192 196 199 191 195 194 197 184 207 202 210 218 212 216 196 193 193 196 196 198 197 188 182 190 180 179 183 187 187 181 181 185 178 176
100 129 131 87 352 65 260 278 232 304 296 273 344 330 254 274 291 253 250 264 246 254 254 247 251 265 279 288 302 309 304 293 284 284 281 273 262 250 241 236 220 213 204 197 191 186 187 188 190 194 205 191 190 191 196 196 202 202 197 199 198 188 197 195 200 200 196 199 192 197 196 199 198 209 201 214 200 189 197 203 194 200 196 185 179 184 182 183 178 187 187 188 193 194 175 186 191
193 121 124 178 135 154 244 214 245 237 216 276 286 52 234 142 239 262 226 234 257 250 253 262 270 268 276 289 294 289 288 287 258 266 260 253 247 235 236 234 234 225 214 202 194 192 183 194 193 201 204 196 191 197 194 201 205 203 202 204 200 196 200 197 204 203 195 195 197 198 203 199 204 210 206 209 173 189 196 191 198 193 189 183 177 179 182 180 185 187 194 198 193 183 185 181 188
163 163 93 84 238 141 220 208 168 279 342 338 227 212 203 209 286 301 296 309 293 278 267 304 273 272 294 297 283 282 284 283 280 274 274 253 239 241 239 240 237 233 226 220 209 194 192 200 197 204 205 197 195 195 200 201 204 201 202 202 205 200 203 201 208 205 206 198 197 197 203 201 209 206 205 173 191 182 191 195 194 197 186 185 187 185 182 185 186 188 196 195 199 187 180 187 188
228 109 197 211 141 99 86 58 50 57 53 254 173 310 281 291 286 275 333 352 305 330 309 319 306 300 291 272 281 286 283 289 294 286 280 285 257 230 226 232 237 234 233 222 220 211 204 197 197 205 210 201 200 205 204 202 204 199 207 208 205 201 200 200 205 205 204 198 195 203 203 206 199 198 194 187 185 190 192 194 195 194 192 192 192 194 189 189 186 192 197 199 210 177 177 185 155
95 184 238 169 173 107 131 262 346 59 183 266 72 236 295 28 292 327 335 324 297 314 301 312 302 307 320 297 296 293 300 297 290 289 288 285 287 272 244 228 224 220 218 225 228 222 223 212 204 204 203 203 208 203 203 201 201 205 209 210 209 206 205 210 209 208 198 187 203 203 198 189 203 199 190 190 185 191 198 196 198 199 197 193 198 191 190 173 166 191 192 211 197 158 166 133 164
117 181 244 135 225 181 336 87 286 260 261 273 297 278 263 206 258 321 291 285 290 294 308 326 318 322 313 310 307 306 296 307 314 313 310 302 284 280 271 250 234 226 222 222 220 214 224 227 221 212 211 212 207 202 203 208 206 208 209 208 205 206 210 213 214 205 181 195 204 203 198 208 195 189 189 186 193 195 196 202 199 202 188 193 181 183 172 176 178 188 185 195 170 171 174 176 179
81 303 14 333 114 191 131 199 188 115 278 31 289 29 258 205 218 216 264 270 267 275 298 289 285 277 278 282 288 297 304 302 294 292 288 282 278 267 259 255 251 237 234 230 224 214 218 222 221 222 226 218 212 208 203 210 206 209 211 202 205 206 210 210 206 194 194 202 207 200 204 201 209 191 196 195 192 194 194 196 197 191 187 185 186 185 177 182 182 195 185 187 189 179 188 187 182
28 63 321 4 270 217 87 344 150 192 191 185 265 313 275 239 197 206 248 251 251 243 261 268 278 284 273 256 267 288 289 289 287 276 280 280 281 279 269 254 255 256 246 237 221 217 216 210 222 220 217 214 210 208 199 210 199 207 202 201 200 201 207 204 200 196 203 208 207 204 207 212 185 198 189 191 195 197 195 197 191 194 190 189 186 185 183 182 189 196 192 190 179 190 194 194 179
173 167 201 177 131 147 170 261 54 78 119 249 129 271 269 285 158 204 237 248 249 246 229 264 270 270 279 288 269 252 284 284 273 279 276 282 282 279 273 267 264 258 250 238 224 216 220 215 216 215 217 219 213 212 206 207 202 199 200 204 205 203 201 193 200 200 206 208 209 208 210 193 198 201 183 197 197 196 196 192 192 196 193 191 191 191 185 184 193 196 196 187 186 190 196 192 186